QPF
0.02 0.01 0.01 0.01 0.01 0.01 0.02 0.02 0.01 0.02 0.02 0.03 0.05 0.05 0.05 0.05 0.04 0.04 0.04 0.05 0.08 0.09 0.09 0.08 0.07 0.07 0.06 0.05 0.04 0.04 0.03 0.02 0.02 0.01 0.00 0.00 0.00 0.00 0.00 0.00 0.00 0.00 0.00
0.01 0.01 0.01 0.01 0.01 0.01 0.01 0.01 0.01 0.02 0.02 0.02 0.03 0.03 0.04 0.04 0.04 0.05 0.05 0.05 0.06 0.07 0.07 0.08 0.08 0.07 0.06 0.05 0.03 0.02 0.02 0.01 0.01 0.01 0.00 0.00 0.00 0.00 0.00 0.01 0.01 0.01 0.01
0.01 0.01 0.01 0.00 0.00 0.01 0.01 0.01 0.01 0.01 0.01 0.01 0.01 0.02 0.02 0.03 0.03 0.04 0.05 0.05 0.05 0.05 0.05 0.05 0.05 0.05 0.05 0.03 0.02 0.01 0.01 0.01 0.01 0.01 0.01 0.00 0.00 0.00 0.00 0.01 0.01 0.01 0.01
0.01 0.01 0.01 0.01 0.01 0.01 0.01 0.01 0.01 0.01 0.01 0.01 0.01 0.01 0.01 0.02 0.02 0.03 0.03 0.04 0.04 0.04 0.04 0.03 0.03 0.03 0.02 0.01 0.01 0.00 0.00 0.01 0.01 0.01 0.01 0.01 0.00 0.00 0.01 0.01 0.01 0.01 0.01
0.01 0.01 0.01 0.01 0.01 0.01 0.01 0.01 0.01 0.01 0.01 0.00 0.00 0.00 0.00 0.01 0.01 0.02 0.02 0.03 0.03 0.03 0.03 0.02 0.02 0.01 0.01 0.00 0.00 0.00 0.01 0.01 0.01 0.01 0.01 0.01 0.01 0.01 0.01 0.01 0.01 0.01 0.01
0.01 0.01 0.01 0.01 0.01 0.01 0.01 0.01 0.01 0.01 0.01 0.01 0.01 0.01 0.00 0.01 0.01 0.02 0.02 0.03 0.03 0.02 0.02 0.01 0.00 0.00 0.00 0.00 0.00 0.00 0.01 0.01 0.01 0.01 0.01 0.01 0.01 0.01 0.01 0.01 0.01 0.01 0.01
0.01 0.01 0.01 0.01 0.01 0.01 0.01 0.01 0.01 0.01 0.01 0.01 0.01 0.01 0.01 0.01 0.02 0.02 0.02 0.02 0.02 0.01 0.01 0.00 0.00 0.00 0.00 0.00 0.00 0.00 0.00 0.00 0.00 0.01 0.01 0.01 0.01 0.01 0.01 0.02 0.02 0.02 0.02
0.00 0.00 0.01 0.01 0.01 0.01 0.01 0.01 0.00 0.01 0.01 0.02 0.01 0.01 0.01 0.02 0.02 0.02 0.01 0.01 0.00 0.00 0.00 0.00 0.00 0.00 0.00 0.00 0.00 0.00 0.00 0.00 0.00 0.01 0.01 0.01 0.01 0.01 0.02 0.02 0.03 0.03 0.04
0.01 0.01 0.01 0.01 0.01 0.01 0.00 0.01 0.01 0.01 0.02 0.02 0.01 0.01 0.01 0.01 0.01 0.01 0.00 0.00 0.00 0.00 0.00 0.00 0.00 0.00 0.00 0.00 0.00 0.00 0.00 0.00 0.01 0.01 0.01 0.01 0.01 0.01 0.01 0.02 0.03 0.04 0.03
0.01 0.01 0.01 0.01 0.01 0.01 0.01 0.01 0.01 0.01 0.01 0.01 0.01 0.01 0.01 0.00 0.00 0.00 0.00 0.00 0.00 0.00 0.00 0.00 0.00 0.00 0.00 0.00 0.01 0.00 0.00 0.00 0.01 0.01 0.01 0.02 0.03 0.02 0.02 0.02 0.02 0.03 0.03
0.02 0.01 0.01 0.01 0.02 0.01 0.01 0.01 0.01 0.01 0.01 0.01 0.00 0.00 0.00 0.00 0.00 0.00 0.00 0.00 0.00 0.00 0.00 0.00 0.00 0.00 0.00 0.00 0.01 0.01 0.01 0.01 0.01 0.01 0.01 0.02 0.03 0.03 0.03 0.03 0.03 0.04 0.04
0.01 0.01 0.01 0.01 0.01 0.01 0.01 0.01 0.01 0.01 0.00 0.00 0.00 0.00 0.00 0.00 0.00 0.01 0.01 0.01 0.01 0.01 0.00 0.00 0.00 0.00 0.00 0.01 0.01 0.01 0.01 0.01 0.01 0.01 0.02 0.02 0.02 0.02 0.02 0.02 0.02 0.03 0.03
0.01 0.01 0.01 0.01 0.01 0.01 0.01 0.01 0.01 0.00 0.00 0.00 0.00 0.00 0.00 0.00 0.00 0.01 0.01 0.01 0.01 0.01 0.01 0.01 0.01 0.01 0.01 0.01 0.01 0.02 0.02 0.02 0.02 0.02 0.02 0.01 0.02 0.02 0.02 0.02 0.02 0.02 0.03
0.00 0.01 0.01 0.01 0.01 0.01 0.01 0.01 0.00 0.00 0.00 0.00 0.00 0.00 0.00 0.00 0.00 0.01 0.01 0.01 0.01 0.02 0.02 0.01 0.01 0.02 0.02 0.01 0.01 0.02 0.02 0.02 0.03 0.02 0.02 0.01 0.01 0.01 0.02 0.02 0.02 0.02 0.02
0.00 0.01 0.01 0.01 0.01 0.01 0.01 0.00 0.00 0.00 0.00 0.00 0.00 0.00 0.00 0.00 0.00 0.01 0.01 0.01 0.02 0.02 0.02 0.02 0.02 0.03 0.03 0.02 0.02 0.02 0.02 0.02 0.03 0.02 0.02 0.02 0.02 0.02 0.02 0.01 0.02 0.02 0.02
0.00 0.00 0.00 0.00 0.01 0.01 0.01 0.00 0.00 0.00 0.00 0.00 0.00 0.00 0.00 0.00 0.01 0.01 0.01 0.01 0.01 0.02 0.03 0.03 0.03 0.03 0.03 0.03 0.02 0.02 0.02 0.02 0.02 0.02 0.03 0.03 0.02 0.02 0.02 0.02 0.02 0.02 0.02
0.00 0.00 0.00 0.01 0.01 0.01 0.00 0.00 0.00 0.00 0.00 0.00 0.00 0.00 0.00 0.00 0.01 0.00 0.00 0.01 0.01 0.01 0.02 0.03 0.03 0.03 0.03 0.03 0.03 0.03 0.02 0.02 0.02 0.02 0.02 0.02 0.02 0.02 0.02 0.02 0.02 0.02 0.02
0.00 0.00 0.01 0.00 0.00 0.00 0.00 0.00 0.00 0.00 0.00 0.00 0.00 0.00 0.00 0.00 0.00 0.00 0.01 0.01 0.01 0.01 0.02 0.02 0.02 0.02 0.03 0.03 0.03 0.03 0.02 0.02 0.02 0.02 0.02 0.02 0.02 0.02 0.02 0.02 0.02 0.02 0.02
0.00 0.00 0.00 0.00 0.00 0.00 0.00 0.00 0.00 0.00 0.00 0.00 0.00 0.00 0.00 0.01 0.01 0.01 0.01 0.02 0.01 0.01 0.01 0.01 0.01 0.01 0.02 0.02 0.02 0.02 0.02 0.02 0.02 0.02 0.02 0.02 0.02 0.02 0.02 0.02 0.02 0.02 0.02
0.00 0.00 0.00 0.00 0.00 0.00 0.00 0.00 0.00 0.00 0.00 0.00 0.00 0.00 0.00 0.01 0.01 0.01 0.01 0.01 0.01 0.01 0.01 0.01 0.01 0.01 0.01 0.01 0.01 0.01 0.02 0.02 0.02 0.02 0.02 0.02 0.02 0.02 0.02 0.02 0.02 0.02 0.02
0.00 0.00 0.01 0.01 0.01 0.01 0.00 0.01 0.01 0.01 0.01 0.01 0.00 0.00 0.01 0.02 0.01 0.01 0.01 0.01 0.01 0.01 0.01 0.01 0.01 0.01 0.01 0.01 0.02 0.02 0.02 0.02 0.02 0.02 0.02 0.02 0.02 0.02 0.02 0.02 0.02 0.02 0.02
0.00 0.00 0.01 0.01 0.01 0.01 0.01 0.01 0.01 0.01 0.01 0.01 0.00 0.01 0.01 0.02 0.01 0.01 0.01 0.01 0.01 0.01 0.01 0.01 0.01 0.01 0.01 0.02 0.02 0.02 0.02 0.02 0.02 0.02 0.02 0.02 0.02 0.02 0.02 0.02 0.02 0.02 0.02
0.01 0.01 0.01 0.01 0.01 0.01 0.01 0.01 0.01 0.01 0.01 0.01 0.01 0.01 0.01 0.01 0.01 0.01 0.01 0.01 0.01 0.01 0.01 0.01 0.01 0.01 0.01 0.01 0.02 0.02 0.02 0.02 0.02 0.03 0.03 0.03 0.02 0.02 0.02 0.02 0.02 0.02 0.02
0.01 0.01 0.01 0.01 0.01 0.01 0.01 0.01 0.01 0.01 0.01 0.01 0.01 0.01 0.01 0.01 0.01 0.01 0.01 0.01 0.01 0.01 0.01 0.01 0.01 0.01 0.01 0.01 0.02 0.02 0.02 0.02 0.03 0.03 0.03 0.03 0.02 0.02 0.02 0.02 0.02 0.02 0.02
0.01 0.01 0.01 0.01 0.01 0.01 0.01 0.01 0.01 0.01 0.01 0.01 0.01 0.01 0.01 0.01 0.01 0.01 0.01 0.01 0.01 0.01 0.01 0.01 0.01 0.01 0.01 0.01 0.01 0.02 0.02 0.02 0.02 0.03 0.03 0.03 0.02 0.02 0.02 0.03 0.03 0.03 0.02
0.01 0.01 0.01 0.01 0.01 0.01 0.01 0.01 0.01 0.01 0.01 0.01 0.01 0.01 0.01 0.01 0.01 0.01 0.01 0.01 0.01 0.01 0.01 0.01 0.01 0.01 0.01 0.01 0.01 0.01 0.02 0.02 0.02 0.03 0.03 0.03 0.03 0.03 0.03 0.03 0.03 0.02 0.02
MSLP
1022.21 1022.55 1022.87 1023.14 1023.32 1023.42 1023.46 1023.50 1023.59 1023.77 1024.07 1024.49 1025.02 1025.58 1026.15 1026.67 1027.10 1027.44 1027.70 1027.90 1028.10 1028.32 1028.59 1028.91 1029.27 1029.62 1029.94 1030.18 1030.31 1030.32 1030.21 1030.01 1029.74 1029.43 1029.10 1028.76 1028.42 1028.07 1027.69 1027.28 1026.83 1026.33 1025.81
1021.61 1021.93 1022.23 1022.48 1022.63 1022.70 1022.71 1022.71 1022.76 1022.90 1023.17 1023.55 1024.05 1024.60 1025.16 1025.68 1026.14 1026.50 1026.78 1027.00 1027.20 1027.41 1027.65 1027.94 1028.26 1028.58 1028.89 1029.14 1029.30 1029.38 1029.35 1029.24 1029.07 1028.84 1028.58 1028.30 1027.99 1027.64 1027.26 1026.83 1026.36 1025.85 1025.30
1021.07 1021.36 1021.64 1021.85 1021.98 1022.02 1022.00 1021.97 1021.98 1022.08 1022.29 1022.63 1023.08 1023.60 1024.14 1024.65 1025.10 1025.48 1025.78 1026.01 1026.22 1026.43 1026.65 1026.91 1027.20 1027.50 1027.79 1028.04 1028.23 1028.36 1028.41 1028.39 1028.30 1028.17 1027.99 1027.78 1027.51 1027.20 1026.83 1026.40 1025.93 1025.40 1024.85
1020.54 1020.81 1021.05 1021.23 1021.33 1021.34 1021.29 1021.24 1021.22 1021.27 1021.44 1021.73 1022.13 1022.59 1023.09 1023.58 1024.02 1024.39 1024.70 1024.96 1025.18 1025.40 1025.62 1025.87 1026.14 1026.42 1026.69 1026.94 1027.15 1027.32 1027.42 1027.47 1027.47 1027.42 1027.33 1027.18 1026.97 1026.70 1026.37 1025.97 1025.51 1024.99 1024.44
1020.02 1020.24 1020.44 1020.58 1020.64 1020.63 1020.57 1020.50 1020.46 1020.49 1020.62 1020.86 1021.20 1021.61 1022.05 1022.49 1022.90 1023.27 1023.59 1023.86 1024.10 1024.34 1024.58 1024.83 1025.09 1025.36 1025.63 1025.88 1026.10 1026.28 1026.42 1026.52 1026.57 1026.59 1026.56 1026.47 1026.34 1026.13 1025.85 1025.49 1025.07 1024.58 1024.05
1019.50 1019.66 1019.80 1019.89 1019.92 1019.89 1019.82 1019.74 1019.70 1019.72 1019.83 1020.03 1020.31 1020.66 1021.04 1021.43 1021.80 1022.14 1022.46 1022.74 1023.01 1023.26 1023.53 1023.80 1024.07 1024.34 1024.61 1024.85 1025.06 1025.24 1025.39 1025.51 1025.60 1025.65 1025.67 1025.65 1025.57 1025.43 1025.22 1024.93 1024.57 1024.13 1023.63
1018.98 1019.07 1019.14 1019.18 1019.17 1019.12 1019.05 1018.99 1018.96 1018.99 1019.08 1019.25 1019.49 1019.77 1020.09 1020.41 1020.73 1021.04 1021.34 1021.62 1021.91 1022.19 1022.48 1022.78 1023.06 1023.34 1023.60 1023.82 1024.02 1024.18 1024.32 1024.44 1024.53 1024.61 1024.66 1024.69 1024.67 1024.60 1024.46 1024.26 1023.97 1023.60 1023.16
1018.50 1018.51 1018.50 1018.48 1018.43 1018.37 1018.30 1018.26 1018.25 1018.29 1018.39 1018.54 1018.74 1018.97 1019.22 1019.47 1019.73 1019.99 1020.26 1020.53 1020.82 1021.12 1021.43 1021.74 1022.04 1022.32 1022.56 1022.77 1022.94 1023.08 1023.19 1023.29 1023.37 1023.46 1023.54 1023.60 1023.64 1023.64 1023.59 1023.47 1023.27 1022.99 1022.62
1018.07 1018.00 1017.92 1017.83 1017.74 1017.66 1017.60 1017.58 1017.59 1017.66 1017.76 1017.90 1018.06 1018.24 1018.42 1018.61 1018.80 1019.00 1019.22 1019.46 1019.74 1020.04 1020.35 1020.67 1020.97 1021.24 1021.47 1021.66 1021.80 1021.90 1021.99 1022.06 1022.14 1022.23 1022.33 1022.43 1022.53 1022.60 1022.62 1022.59 1022.49 1022.30 1022.01
1017.75 1017.59 1017.44 1017.28 1017.14 1017.04 1016.97 1016.96 1017.00 1017.08 1017.19 1017.32 1017.45 1017.58 1017.70 1017.81 1017.93 1018.06 1018.23 1018.43 1018.67 1018.95 1019.25 1019.55 1019.84 1020.09 1020.30 1020.46 1020.57 1020.66 1020.72 1020.78 1020.86 1020.96 1021.09 1021.23 1021.38 1021.52 1021.62 1021.68 1021.66 1021.56 1021.36
1017.55 1017.32 1017.08 1016.85 1016.66 1016.52 1016.45 1016.43 1016.48 1016.56 1016.67 1016.79 1016.89 1016.97 1017.02 1017.07 1017.12 1017.18 1017.28 1017.42 1017.62 1017.85 1018.12 1018.39 1018.64 1018.87 1019.05 1019.18 1019.28 1019.34 1019.40 1019.47 1019.56 1019.69 1019.85 1020.05 1020.25 1020.46 1020.63 1020.76 1020.82 1020.79 1020.66
1017.51 1017.19 1016.87 1016.57 1016.32 1016.14 1016.03 1016.00 1016.03 1016.11 1016.20 1016.29 1016.35 1016.38 1016.38 1016.37 1016.34 1016.34 1016.37 1016.45 1016.58 1016.76 1016.97 1017.18 1017.40 1017.58 1017.73 1017.84 1017.93 1017.99 1018.06 1018.15 1018.28 1018.45 1018.66 1018.91 1019.18 1019.44 1019.68 1019.86 1019.98 1020.01 1019.94
1017.62 1017.22 1016.82 1016.45 1016.13 1015.89 1015.74 1015.67 1015.67 1015.71 1015.77 1015.82 1015.84 1015.82 1015.76 1015.68 1015.60 1015.53 1015.49 1015.50 1015.56 1015.67 1015.81 1015.97 1016.12 1016.26 1016.37 1016.46 1016.54 1016.62 1016.71 1016.84 1017.02 1017.25 1017.52 1017.83 1018.15 1018.46 1018.75 1018.98 1019.13 1019.20 1019.17
1017.89 1017.41 1016.93 1016.47 1016.09 1015.78 1015.57 1015.45 1015.40 1015.38 1015.39 1015.38 1015.35 1015.27 1015.15 1015.02 1014.87 1014.74 1014.63 1014.58 1014.57 1014.60 1014.67 1014.75 1014.84 1014.92 1014.99 1015.06 1015.14 1015.23 1015.36 1015.54 1015.78 1016.07 1016.40 1016.77 1017.14 1017.50 1017.81 1018.07 1018.25 1018.34 1018.34
1018.31 1017.74 1017.18 1016.65 1016.19 1015.82 1015.54 1015.35 1015.22 1015.14 1015.07 1014.99 1014.88 1014.74 1014.56 1014.37 1014.16 1013.97 1013.81 1013.69 1013.61 1013.56 1013.55 1013.56 1013.57 1013.59 1013.62 1013.66 1013.73 1013.84 1014.01 1014.23 1014.52 1014.87 1015.26 1015.68 1016.09 1016.48 1016.82 1017.09 1017.28 1017.38 1017.39
1018.84 1018.21 1017.57 1016.98 1016.46 1016.02 1015.66 1015.39 1015.18 1015.00 1014.84 1014.67 1014.48 1014.26 1014.01 1013.75 1013.49 1013.24 1013.02 1012.83 1012.68 1012.57 1012.48 1012.40 1012.35 1012.31 1012.28 1012.29 1012.35 1012.46 1012.65 1012.91 1013.24 1013.63 1014.06 1014.51 1014.95 1015.36 1015.71 1015.99 1016.19 1016.31 1016.34
1019.48 1018.78 1018.10 1017.46 1016.88 1016.37 1015.95 1015.59 1015.28 1015.00 1014.74 1014.46 1014.17 1013.86 1013.53 1013.20 1012.87 1012.57 1012.29 1012.04 1011.82 1011.63 1011.47 1011.32 1011.19 1011.08 1011.01 1010.98 1011.01 1011.11 1011.30 1011.57 1011.92 1012.33 1012.78 1013.25 1013.71 1014.12 1014.48 1014.77 1014.98 1015.12 1015.17
1020.19 1019.46 1018.75 1018.07 1017.46 1016.90 1016.41 1015.97 1015.57 1015.18 1014.80 1014.41 1014.01 1013.59 1013.17 1012.76 1012.36 1011.99 1011.65 1011.34 1011.06 1010.81 1010.57 1010.35 1010.15 1009.98 1009.84 1009.76 1009.75 1009.82 1009.99 1010.25 1010.59 1011.00 1011.45 1011.91 1012.37 1012.79 1013.15 1013.46 1013.69 1013.85 1013.95
1020.98 1020.24 1019.52 1018.84 1018.20 1017.62 1017.07 1016.56 1016.06 1015.57 1015.06 1014.55 1014.03 1013.50 1012.99 1012.48 1012.01 1011.57 1011.16 1010.79 1010.45 1010.14 1009.83 1009.54 1009.27 1009.03 1008.83 1008.69 1008.63 1008.65 1008.78 1009.00 1009.30 1009.68 1010.11 1010.55 1010.99 1011.41 1011.78 1012.10 1012.37 1012.58 1012.73
1021.82 1021.10 1020.40 1019.73 1019.10 1018.50 1017.92 1017.34 1016.76 1016.16 1015.55 1014.92 1014.28 1013.64 1013.02 1012.43 1011.87 1011.36 1010.89 1010.46 1010.06 1009.68 1009.31 1008.96 1008.62 1008.31 1008.05 1007.84 1007.71 1007.67 1007.73 1007.89 1008.14 1008.46 1008.84 1009.25 1009.67 1010.07 1010.45 1010.79 1011.09 1011.36 1011.58
1022.71 1022.02 1021.37 1020.74 1020.13 1019.53 1018.92 1018.29 1017.64 1016.96 1016.24 1015.50 1014.76 1014.02 1013.31 1012.63 1012.00 1011.42 1010.89 1010.40 1009.94 1009.50 1009.07 1008.65 1008.24 1007.86 1007.52 1007.24 1007.03 1006.91 1006.89 1006.98 1007.15 1007.40 1007.72 1008.08 1008.46 1008.85 1009.23 1009.60 1009.94 1010.27 1010.56
1023.62 1022.99 1022.39 1021.81 1021.23 1020.64 1020.03 1019.37 1018.66 1017.91 1017.11 1016.29 1015.46 1014.63 1013.84 1013.09 1012.40 1011.75 1011.16 1010.61 1010.09 1009.59 1009.09 1008.61 1008.13 1007.67 1007.26 1006.89 1006.60 1006.40 1006.29 1006.28 1006.37 1006.55 1006.80 1007.10 1007.45 1007.81 1008.19 1008.58 1008.97 1009.35 1009.71
1024.52 1023.96 1023.42 1022.89 1022.35 1021.78 1021.16 1020.49 1019.74 1018.94 1018.09 1017.21 1016.31 1015.43 1014.58 1013.78 1013.02 1012.33 1011.68 1011.07 1010.49 1009.92 1009.36 1008.80 1008.24 1007.71 1007.20 1006.75 1006.38 1006.08 1005.89 1005.80 1005.80 1005.90 1006.08 1006.33 1006.63 1006.98 1007.36 1007.76 1008.18 1008.61 1009.03
1025.38 1024.88 1024.40 1023.91 1023.41 1022.85 1022.24 1021.55 1020.78 1019.95 1019.07 1018.15 1017.22 1016.30 1015.41 1014.57 1013.78 1013.04 1012.34 1011.67 1011.02 1010.38 1009.74 1009.09 1008.46 1007.83 1007.25 1006.71 1006.25 1005.88 1005.60 1005.43 1005.36 1005.40 1005.52 1005.73 1006.00 1006.33 1006.70 1007.12 1007.56 1008.02 1008.49
1026.16 1025.71 1025.27 1024.82 1024.33 1023.78 1023.16 1022.46 1021.69 1020.84 1019.94 1019.00 1018.05 1017.12 1016.21 1015.34 1014.52 1013.74 1012.98 1012.25 1011.53 1010.81 1010.08 1009.35 1008.62 1007.91 1007.24 1006.63 1006.09 1005.65 1005.31 1005.09 1004.97 1004.96 1005.05 1005.23 1005.49 1005.81 1006.19 1006.62 1007.08 1007.56 1008.05
1026.85 1026.42 1026.00 1025.55 1025.06 1024.51 1023.87 1023.16 1022.36 1021.50 1020.58 1019.64 1018.69 1017.74 1016.82 1015.94 1015.08 1014.26 1013.45 1012.65 1011.85 1011.04 1010.22 1009.40 1008.58 1007.79 1007.05 1006.37 1005.78 1005.29 1004.92 1004.67 1004.53 1004.51 1004.60 1004.78 1005.04 1005.38 1005.77 1006.21 1006.69 1007.19 1007.69
Thickness
5502 5499 5496 5493 5490 5486 5483 5480 5477 5474 5471 5468 5465 5462 5459 5455 5452 5447 5443 5439 5435 5431 5426 5422 5417 5412 5407 5403 5398 5393 5389 5385 5382 5382 5377 5372 5368 5364 5360 5356 5353 5349 5347
5498 5494 5491 5487 5483 5480 5477 5473 5470 5467 5464 5461 5458 5454 5451 5447 5443 5439 5435 5431 5427 5422 5418 5413 5408 5403 5399 5394 5389 5384 5380 5375 5371 5370 5367 5361 5357 5353 5349 5346 5342 5338 5335
5492 5489 5485 5481 5478 5474 5471 5467 5464 5460 5457 5453 5450 5446 5442 5439 5435 5431 5427 5422 5418 5414 5409 5404 5399 5394 5389 5384 5380 5375 5371 5366 5360 5357 5355 5351 5346 5342 5338 5335 5331 5327 5324
5486 5482 5479 5475 5472 5468 5464 5461 5457 5453 5450 5446 5443 5439 5435 5431 5427 5423 5418 5414 5409 5404 5400 5395 5390 5386 5381 5376 5371 5366 5361 5356 5351 5346 5343 5340 5335 5330 5325 5322 5320 5317 5313
5481 5477 5474 5470 5466 5462 5458 5454 5450 5446 5442 5438 5434 5431 5427 5423 5419 5414 5410 5406 5401 5396 5391 5386 5381 5376 5372 5367 5362 5357 5352 5346 5341 5336 5332 5328 5324 5319 5314 5310 5307 5306 5303
5475 5471 5468 5463 5459 5455 5451 5447 5442 5438 5434 5430 5426 5422 5418 5415 5411 5407 5402 5397 5392 5387 5382 5377 5372 5367 5363 5358 5352 5347 5342 5336 5331 5326 5321 5317 5314 5308 5303 5299 5294 5292 5293
5470 5465 5461 5456 5452 5448 5444 5439 5435 5430 5426 5422 5418 5414 5410 5406 5402 5398 5393 5388 5383 5378 5373 5368 5363 5359 5353 5348 5343 5337 5331 5325 5320 5315 5310 5306 5302 5298 5292 5289 5284 5280 5279
5464 5459 5454 5449 5445 5440 5435 5431 5427 5422 5418 5414 5410 5405 5401 5397 5393 5389 5384 5379 5374 5369 5363 5358 5353 5349 5344 5338 5333 5328 5322 5317 5311 5304 5299 5295 5290 5286 5281 5277 5273 5270 5268
5458 5453 5448 5443 5438 5433 5428 5424 5419 5414 5410 5406 5401 5396 5392 5388 5384 5380 5375 5369 5364 5360 5354 5349 5344 5340 5336 5330 5324 5318 5314 5308 5302 5295 5290 5285 5280 5275 5270 5265 5259 5255 5255
5453 5448 5442 5436 5431 5426 5422 5416 5411 5407 5402 5397 5392 5388 5383 5379 5375 5371 5366 5360 5356 5351 5346 5341 5335 5331 5326 5320 5314 5308 5303 5299 5292 5287 5281 5276 5270 5265 5259 5253 5247 5242 5239
5447 5441 5435 5430 5425 5419 5414 5409 5403 5397 5392 5387 5383 5379 5374 5370 5366 5361 5357 5352 5347 5342 5337 5333 5328 5323 5318 5312 5305 5298 5294 5288 5280 5274 5270 5265 5260 5255 5249 5243 5237 5231 5228
5439 5433 5427 5422 5416 5411 5405 5400 5394 5388 5382 5377 5373 5369 5365 5360 5356 5352 5348 5343 5338 5333 5329 5324 5319 5314 5308 5302 5295 5290 5283 5276 5268 5263 5258 5254 5250 5245 5239 5234 5228 5223 5218
5431 5425 5420 5414 5408 5402 5396 5391 5384 5379 5374 5369 5364 5360 5357 5352 5347 5343 5339 5334 5329 5324 5320 5315 5309 5304 5298 5292 5286 5279 5271 5264 5258 5252 5248 5244 5239 5233 5227 5223 5219 5214 5210
5424 5418 5412 5405 5399 5393 5388 5383 5377 5371 5366 5362 5356 5352 5348 5343 5338 5334 5329 5324 5319 5314 5309 5304 5299 5293 5287 5282 5275 5268 5261 5254 5247 5242 5238 5233 5227 5221 5216 5211 5207 5203 5200
5416 5409 5403 5397 5391 5384 5379 5374 5370 5366 5360 5355 5350 5345 5339 5335 5332 5326 5320 5316 5310 5304 5298 5292 5287 5281 5276 5270 5264 5258 5251 5244 5238 5232 5226 5221 5216 5211 5206 5200 5195 5190 5186
5407 5401 5394 5388 5381 5376 5370 5365 5362 5358 5353 5348 5343 5337 5332 5328 5323 5318 5313 5308 5301 5294 5286 5280 5275 5269 5264 5258 5252 5247 5240 5234 5228 5221 5215 5209 5204 5200 5195 5190 5185 5180 5177
5398 5392 5385 5378 5372 5367 5361 5356 5351 5348 5343 5339 5334 5329 5324 5320 5315 5309 5303 5297 5290 5283 5275 5269 5264 5258 5252 5246 5241 5235 5230 5223 5216 5210 5204 5198 5193 5188 5184 5180 5175 5171 5169
5388 5382 5376 5370 5364 5358 5352 5347 5341 5336 5331 5327 5323 5319 5314 5309 5304 5298 5292 5285 5277 5271 5264 5258 5253 5246 5240 5234 5229 5223 5218 5212 5205 5199 5193 5188 5183 5178 5174 5170 5166 5161 5159
5377 5371 5365 5359 5353 5348 5342 5337 5331 5326 5321 5316 5311 5307 5302 5297 5292 5285 5278 5270 5265 5259 5253 5247 5241 5235 5229 5223 5217 5212 5206 5200 5194 5188 5183 5177 5172 5168 5165 5161 5157 5154 5149
5366 5361 5354 5348 5342 5336 5331 5326 5321 5315 5310 5305 5301 5296 5290 5284 5278 5272 5265 5258 5253 5248 5243 5237 5231 5225 5219 5212 5206 5200 5194 5189 5184 5178 5173 5168 5163 5158 5154 5151 5148 5144 5142
5353 5348 5342 5336 5331 5326 5321 5316 5311 5305 5299 5295 5290 5285 5281 5274 5268 5261 5255 5249 5243 5237 5232 5226 5221 5214 5208 5201 5195 5189 5183 5179 5174 5168 5163 5159 5154 5150 5146 5142 5140 5137 5134
5340 5335 5330 5325 5320 5315 5309 5304 5299 5293 5288 5283 5279 5273 5268 5261 5255 5250 5244 5238 5232 5226 5220 5214 5209 5203 5196 5190 5184 5178 5173 5168 5164 5159 5154 5149 5145 5141 5137 5134 5132 5129 5126
5327 5322 5317 5312 5307 5302 5296 5291 5286 5281 5276 5271 5266 5260 5254 5248 5242 5237 5232 5226 5220 5214 5208 5202 5196 5191 5185 5179 5172 5166 5162 5159 5154 5149 5144 5140 5136 5133 5129 5127 5124 5121 5119
5314 5309 5303 5298 5293 5288 5283 5278 5273 5268 5263 5257 5252 5247 5242 5236 5230 5224 5218 5212 5206 5201 5195 5189 5184 5179 5174 5169 5163 5158 5154 5150 5145 5141 5136 5132 5129 5125 5122 5119 5117 5115 5112
5300 5295 5290 5285 5280 5275 5270 5265 5260 5255 5250 5244 5239 5234 5229 5223 5217 5211 5205 5199 5193 5188 5183 5177 5172 5168 5164 5160 5155 5151 5147 5143 5138 5134 5130 5126 5123 5119 5116 5113 5111 5109 5107
5285 5280 5275 5270 5265 5260 5255 5250 5246 5241 5236 5231 5225 5220 5214 5208 5203 5198 5192 5186 5180 5175 5170 5166 5161 5157 5153 5150 5147 5143 5139 5136 5133 5129 5124 5121 5117 5114 5111 5109 5106 5104 5102